This is the latest recevied weather packets stored in our database for station/object KD7CIH. If no packets are shown the sender has not sent any weather packets the latest 10 day(s).
| Time | Temp. | Humidity | Pressure | Rain* | Wind** | Luminosity | Snow |
|---|---|---|---|---|---|---|---|
| 1787787554 | 28.33° C | 18% | 1019.6 hPa | 0 mm | - | - | - |
| 1787787125 | 28.89° C | 18% | 1019.6 hPa | 0 mm | - | - | - |
| 1787786826 | 29.44° C | 18% | 1019.6 hPa | 0 mm | - | - | - |
| 1787786525 | 29.44° C | 18% | 1019.6 hPa | 0 mm | - | - | - |
| 1787786226 | 29.44° C | 18% | 1019.8 hPa | 0 mm | - | - | - |
| 1787785925 | 28.89° C | 18% | 1019.8 hPa | 0 mm | - | - | - |
| 1787785753 | 29.44° C | 17% | 1019.8 hPa | 0 mm | - | - | - |
| 1787785326 | 29.44° C | 17% | 1019.8 hPa | 0 mm | - | - | - |
| 1787785025 | 29.44° C | 17% | 1019.8 hPa | 0 mm | - | - | - |
| 1787784854 | 29.44° C | 17% | 1020 hPa | 0 mm | - | - | - |
| 1787784427 | 29.44° C | 18% | 1020.1 hPa | 0 mm | - | - | - |
| 1787784126 | 28.89° C | 17% | 1020 hPa | 0 mm | - | - | - |
| 1787783955 | 28.89° C | 18% | 1020.1 hPa | 0 mm | - | - | - |
| 1787783654 | 28.33° C | 19% | 1020.1 hPa | 0 mm | - | - | - |
| 1787783226 | 28.33° C | 18% | 1020.2 hPa | 0 mm | - | - | - |
| 1787783056 | 28.89° C | 19% | 1020.2 hPa | 0 mm | - | - | - |
| 1787782625 | 28.89° C | 19% | 1020.2 hPa | 0 mm | - | - | - |
| 1787782327 | 28.33° C | 20% | 1020.4 hPa | 0 mm | - | - | - |
| 1787782027 | 28.33° C | 20% | 1020.5 hPa | 0 mm | - | - | - |
| 1787781727 | 28.33° C | 20% | 1020.5 hPa | 0 mm | - | - | - |
| 1787781553 | 28.33° C | 20% | 1020.5 hPa | 0 mm | - | - | - |
| 1787781126 | 28.33° C | 20% | 1020.9 hPa | 0 mm | - | - | - |
| 1787780955 | 27.78° C | 20% | 1020.9 hPa | 0 mm | - | - | - |
| 1787780528 | 27.78° C | 20% | 1021 hPa | 0 mm | - | - | - |
| 1787780228 | 27.78° C | 22% | 1021.1 hPa | 0 mm | - | - | - |
* Rain latest hour (hover to see other rain measurements)
** Current wind speed in m/s (hover to see current wind gust speed)